Meteo pe oră la Dzierlin

Astăzi, 3 Martie, Miercuri

Timp Temperatura Precipitaţii Vânt Presiune Umiditate
00:00 +3°C° 0 mm 0 m/s 762 mmHg 86%
01:00 +3°C° 0 mm 0 m/s 762 mmHg 86%
02:00 +3°C° 0 mm 0 m/s 761 mmHg 86%
03:00 +3°C° 0 mm 1 m/s 761 mmHg 86%
04:00 +3°C° 0 mm 1 m/s 760 mmHg 86%
05:00 +3°C° 0 mm 1 m/s 760 mmHg 86%
06:00 +3°C° 0 mm 1 m/s 760 mmHg 86%
07:00 +3°C° 0 mm 1 m/s 760 mmHg 86%
08:00 +5°C° 0 mm 1 m/s 760 mmHg 79%
09:00 +6°C° 0 mm 2 m/s 759 mmHg 73%
10:00 +7°C° 0 mm 2 m/s 759 mmHg 66%
11:00 +9°C° 0 mm 2 m/s 759 mmHg 61%
12:00 +10°C° 0 mm 2 m/s 758 mmHg 57%
13:00 +13°C° 0 mm 2 m/s 758 mmHg 52%
14:00 +13°C° 0 mm 2 m/s 757 mmHg 52%
15:00 +13°C° 0 mm 2 m/s 756 mmHg 53%
16:00 +13°C° 0 mm 1 m/s 755 mmHg 54%
17:00 +12°C° 0 mm 2 m/s 755 mmHg 57%
18:00 +9°C° 0 mm 2 m/s 755 mmHg 60%
19:00 +8°C° 0 mm 2 m/s 755 mmHg 64%
20:00 +7°C° 0 mm 3 m/s 754 mmHg 66%
21:00 +7°C° 0 mm 3 m/s 754 mmHg 69%
22:00 +5°C° 0 mm 3 m/s 753 mmHg 71%
23:00 +5°C° 0 mm 4 m/s 753 mmHg 75%

Mâine, 4 Martie, Joi

Timp Temperatura Precipitaţii Vânt Presiune Umiditate
00:00 +4°C° 0 mm 4 m/s 752 mmHg 79%
01:00 +4°C° 0 mm 4 m/s 752 mmHg 83%
02:00 +4°C° 0 mm 4 m/s 751 mmHg 83%
03:00 +3°C° 0 mm 5 m/s 751 mmHg 83%
04:00 +5°C° 0 mm 5 m/s 750 mmHg 82%
05:00 +3°C° 0 mm 5 m/s 750 mmHg 86%
06:00 +3°C° 0 mm 5 m/s 749 mmHg 90%
07:00 +3°C° 0 mm 5 m/s 749 mmHg 93%
08:00 +4°C° 0 mm 6 m/s 749 mmHg 88%
09:00 +4°C° 0 mm 6 m/s 749 mmHg 82%
10:00 +5°C° 0 mm 6 m/s 749 mmHg 77%
11:00 +6°C° 0 mm 7 m/s 748 mmHg 72%
12:00 +8°C° 0 mm 7 m/s 748 mmHg 67%
13:00 +8°C° 0 mm 7 m/s 748 mmHg 62%
14:00 +8°C° 0 mm 7 m/s 748 mmHg 65%
15:00 +7°C° 0 mm 6 m/s 747 mmHg 67%
16:00 +5°C° 0 mm 6 m/s 747 mmHg 70%
17:00 +4°C° 0 mm 6 m/s 747 mmHg 71%
18:00 +3°C° 0 mm 5 m/s 747 mmHg 73%
19:00 +2°C° 0 mm 5 m/s 747 mmHg 74%
20:00 +1°C° 0 mm 4 m/s 747 mmHg 76%
21:00 +1°C° 0 mm 4 m/s 748 mmHg 77%
22:00 +2°C° 0 mm 3 m/s 748 mmHg 78%
23:00 0°C° 0.1 mm 4 m/s 748 mmHg 82%

Poimâine, 5 Martie, Vineri

Timp Temperatura Precipitaţii Vânt Presiune Umiditate
00:00 -1°C° 0.1 mm 4 m/s 748 mmHg 86%
01:00 -1°C° 0.1 mm 5 m/s 748 mmHg 89%
02:00 -2°C° 0 mm 5 m/s 749 mmHg 85%
03:00 -2°C° 0 mm 5 m/s 749 mmHg 80%
04:00 -2°C° 0 mm 5 m/s 749 mmHg 75%
05:00 -3°C° 0 mm 4 m/s 750 mmHg 76%
06:00 -3°C° 0 mm 4 m/s 751 mmHg 78%
07:00 -3°C° 0 mm 4 m/s 751 mmHg 79%
08:00 -2°C° 0 mm 4 m/s 751 mmHg 72%
09:00 -1°C° 0 mm 4 m/s 752 mmHg 64%
10:00 -1°C° 0 mm 4 m/s 752 mmHg 57%
11:00 0°C° 0 mm 4 m/s 752 mmHg 52%
12:00 +1°C° 0 mm 4 m/s 753 mmHg 48%
13:00 +3°C° 0 mm 4 m/s 753 mmHg 43%
14:00 +3°C° 0 mm 4 m/s 753 mmHg 43%
15:00 +1°C° 0 mm 4 m/s 753 mmHg 42%
16:00 +1°C° 0 mm 4 m/s 753 mmHg 42%
17:00 +1°C° 0 mm 3 m/s 754 mmHg 46%
18:00 0°C° 0 mm 3 m/s 755 mmHg 51%
19:00 +1°C° 0 mm 2 m/s 755 mmHg 55%
20:00 -1°C° 0 mm 2 m/s 756 mmHg 58%
21:00 -1°C° 0 mm 3 m/s 756 mmHg 61%
22:00 -1°C° 0 mm 3 m/s 757 mmHg 63%
23:00 -2°C° 0 mm 3 m/s 757 mmHg 66%

6 Martie, Sâmbătă

Timp Temperatura Precipitaţii Vânt Presiune Umiditate
00:00 -2°C° 0 mm 3 m/s 758 mmHg 69%
01:00 -3°C° 0 mm 4 m/s 758 mmHg 72%
02:00 -2°C° 0 mm 3 m/s 758 mmHg 71%
03:00 -2°C° 0 mm 3 m/s 759 mmHg 69%
04:00 -2°C° 0 mm 3 m/s 759 mmHg 68%
05:00 -2°C° 0 mm 3 m/s 759 mmHg 69%
06:00 -2°C° 0 mm 3 m/s 760 mmHg 70%
07:00 -4°C° 0 mm 3 m/s 760 mmHg 71%
08:00 -2°C° 0 mm 3 m/s 761 mmHg 62%
09:00 -1°C° 0 mm 2 m/s 761 mmHg 53%
10:00 +1°C° 0 mm 2 m/s 761 mmHg 44%
11:00 +1°C° 0 mm 3 m/s 761 mmHg 42%
12:00 +1°C° 0 mm 3 m/s 761 mmHg 41%
13:00 +1°C° 0 mm 4 m/s 761 mmHg 40%
14:00 +1°C° 0 mm 4 m/s 760 mmHg 41%
15:00 +1°C° 0 mm 4 m/s 760 mmHg 42%
16:00 +1°C° 0 mm 4 m/s 760 mmHg 43%
17:00 0°C° 0 mm 4 m/s 760 mmHg 47%
18:00 0°C° 0 mm 3 m/s 760 mmHg 51%
19:00 -1°C° 0 mm 3 m/s 760 mmHg 55%
20:00 -1°C° 0 mm 3 m/s 760 mmHg 55%
21:00 -3°C° 0 mm 4 m/s 759 mmHg 54%
22:00 -3°C° 0 mm 4 m/s 759 mmHg 54%
23:00 -3°C° 0 mm 4 m/s 759 mmHg 54%

7 Martie, Duminică

Timp Temperatura Precipitaţii Vânt Presiune Umiditate
00:00 -4°C° 0 mm 5 m/s 758 mmHg 53%
01:00 -4°C° 0 mm 5 m/s 758 mmHg 52%
02:00 -4°C° 0 mm 5 m/s 757 mmHg 52%
03:00 -4°C° 0 mm 6 m/s 757 mmHg 51%
04:00 -4°C° 0 mm 6 m/s 756 mmHg 51%
05:00 -4°C° 0 mm 6 m/s 756 mmHg 51%
06:00 -3°C° 0 mm 6 m/s 756 mmHg 51%
07:00 -3°C° 0 mm 6 m/s 755 mmHg 51%
08:00 -2°C° 0 mm 7 m/s 755 mmHg 50%
09:00 -1°C° 0 mm 7 m/s 755 mmHg 49%
10:00 0°C° 0 mm 7 m/s 755 mmHg 48%
11:00 +2°C° 0 mm 7 m/s 754 mmHg 48%
12:00 +2°C° 0 mm 7 m/s 754 mmHg 48%
13:00 +3°C° 0 mm 7 m/s 753 mmHg 48%
14:00 +3°C° 0 mm 7 m/s 753 mmHg 50%
15:00 +3°C° 0 mm 6 m/s 752 mmHg 52%
16:00 +2°C° 0 mm 6 m/s 752 mmHg 55%
17:00 +1°C° 0 mm 5 m/s 752 mmHg 62%
18:00 -1°C° 0 mm 4 m/s 751 mmHg 69%
19:00 -1°C° 0 mm 3 m/s 751 mmHg 76%
20:00 -1°C° 0 mm 2 m/s 751 mmHg 78%
21:00 -2°C° 0 mm 2 m/s 751 mmHg 80%
22:00 -2°C° 0 mm 2 m/s 751 mmHg 82%
23:00 -2°C° 0 mm 2 m/s 751 mmHg 82%

8 Martie, Luni

Timp Temperatura Precipitaţii Vânt Presiune Umiditate
00:00 -2°C° 0 mm 3 m/s 750 mmHg 83%
01:00 -2°C° 0 mm 3 m/s 750 mmHg 83%
02:00 -2°C° 0 mm 3 m/s 749 mmHg 82%
03:00 -3°C° 0 mm 4 m/s 749 mmHg 82%
04:00 -3°C° 0 mm 4 m/s 749 mmHg 81%
05:00 -4°C° 0 mm 5 m/s 749 mmHg 81%
06:00 -4°C° 0 mm 5 m/s 749 mmHg 80%
07:00 -2°C° 0 mm 5 m/s 749 mmHg 79%
08:00 -2°C° 0.2 mm 5 m/s 749 mmHg 82%
09:00 -2°C° 0.2 mm 5 m/s 750 mmHg 85%
10:00 -1°C° 0.2 mm 5 m/s 750 mmHg 88%
11:00 -1°C° 0.1 mm 5 m/s 750 mmHg 79%
12:00 0°C° 0.1 mm 4 m/s 750 mmHg 71%
13:00 +1°C° 0.1 mm 4 m/s 751 mmHg 63%
14:00 +2°C° 0 mm 3 m/s 751 mmHg 60%
15:00 +2°C° 0 mm 3 m/s 751 mmHg 57%
16:00 +1°C° 0 mm 3 m/s 751 mmHg 53%
17:00 0°C° 0 mm 3 m/s 751 mmHg 59%
18:00 -1°C° 0 mm 3 m/s 752 mmHg 65%
19:00 -2°C° 0 mm 3 m/s 753 mmHg 71%
20:00 -2°C° 0 mm 3 m/s 753 mmHg 74%
21:00 -4°C° 0 mm 4 m/s 754 mmHg 77%
22:00 -4°C° 0 mm 4 m/s 754 mmHg 81%
23:00 -5°C° 0 mm 4 m/s 755 mmHg 81%
Arată mai mult

Formular de consimțământ

Meteoprog și furnizorii noștri de servicii pot stoca și accesa date personale, precum cookies, identificatori de dispozitiv sau alte tehnologii similare pe dispozitivul dumneavoastră și procesa astfel de date pentru a personaliza conținutul și reclamele, dar și pentru a oferi caracteristici de social media și pentru a analiza traficul.

  • Stocarea și/sau accesarea informațiilor pe dispozitivul dumneavoastră

    Cookies, identificatori de dispozitiv sau alte informații pot fi stocate sau accesate pe dispozitiv în scopurile indicate mai sus.

  • Reclame și conținut personalizat, evaluarea reclamelor și a conținutului, informații despre audiențe și dezvoltarea produselor

    Reclamele și conținutul pot fi personalizate pe baza unui profil. Pot fi adăugate date suplimentare pentru a personaliza mai bine reclamele și conținutul. Performanța reclamelor și conținutului poate fi măsurată. Pot fi obținute informații despre utilizatorii care au văzut reclamele și conținutul. Aceste date pot fi utilizate pentru a dezvolta sau îmbunătăți experiența utilizatorilor, sistemele și software-ul.

Dând clic pe ‘Sunt de acord’, permiteți utilizarea cookie-urilor menționate, a identificatorilor de dispozitiv, balizelor web sau altor tehnologii similare. Setările pot fi modificate din browser-ul dispozitivului dumneavoastră.

În anumite scopuri, interesele legitime pot prima asupra consimțământului. Puteți citi mai multe informații în acest sens în Politica privind Confidențialitatea Datelor și Cookie.